Simultaneous Nadir Overpasses (SNOs) Predictions

Prediction of SNOs between TERRA and METOP-C Satellite Orbit:

Table of predicted SNOs for the next 14.0 days since TLE Epoch: 6/5/2021
Index Date (TERRA) Time (TERRA) Lat,Lon (TERRA) SZA (TERRA ) Date (METOP-C) Time (METOP-C) Lat,Lon (METOP-C) SZA (METOP-C ) Distance(km) Time Diff (sec)
1 06/06/2021 18:16:46 -81.30, 131.81 118.61 06/06/2021 18:15:55 -81.30, 131.98 118.62 2.80 51
2 06/06/2021 19:06:12 81.30, -60.45 61.40 06/06/2021 19:06:34 81.30, -60.27 61.44 3.16 22
3 06/09/2021 13:50:59 -81.28,-162.00 118.92 06/09/2021 13:50:17 -81.29,-162.12 118.95 2.04 42
4 06/09/2021 14:40:24 81.31, 6.07 61.15 06/09/2021 14:40:55 81.30, 5.96 61.15 2.17 31
5 06/12/2021 09:25:12 -81.29, -95.45 119.11 06/12/2021 09:24:38 -81.29, -95.46 119.13 0.32 34
6 06/12/2021 10:14:38 81.29, 72.23 60.90 06/12/2021 10:15:17 81.30, 72.17 60.91 1.06 39
7 06/15/2021 04:59:25 -81.30, -28.89 119.25 06/15/2021 04:58:59 -81.30, -28.82 119.25 1.13 26
8 06/15/2021 05:48:51 81.30, 138.76 60.75 06/15/2021 05:49:38 81.30, 138.76 60.78 0.30 47
9 06/18/2021 00:33:38 -81.28, 37.29 119.39 06/18/2021 00:33:20 -81.29, 37.41 119.38 2.26 18



Historial Predications of SNOs between TERRA and METOP-C
